SL-14 DEB, 45274

Orbit data source: Space-Track

SL-14 DEB, 45274 is space debris in LEO originally from a launch on Thu, 15 Aug 1991 UTC launched from the Plesetsk Missile And Space Complex (PKMTR). Debris objects in space refer to the collection of defunct objects orbiting the Earth. Examples of debris include non-operational satellites, rocket bodies, and fragments generated from explosions, collisions, or faulty payload assembly.

Loading next visibility...
Identifier
45274, 1991-056L
Orbit
LEO
Country
Flag of CISCIS
Related business
Manufacturer
Unknown
Mission
Spacecraft
Bus & Motor
Unknown
Mass
Unknown
Launch date (UTC)
1991-08-15 (34 years ago)
Launch vehicle
Unknown
Launch site
Plesetsk Missile And Space Complex (PKMTR)
Object type
Payload
Rocket body
Debris
Shape & HBR
Unknown shape, 0.2 m
Radar Cross Section
Medium (>0.1 m² and <1 m²)

Expand to show TLE details & history
Last TLE update: 11 hours ago

TLE from 11 hours ago
0 SL-14 DEB
1 45274U 91056L   26038.02718883  .00000281  00000-0  68870-3 0  9992
2 45274  82.5343 227.3025 0027719 112.9962 247.4089 13.17681087287582
Epoch: 2026-02-07T00:39Z
TLE epoch observation values (Epoch: 2026-02-07T00:39:09.114Z)
Latitude
-0.00004°
Longitude
80.35791°
Altitude
1,204.512 km
Speed
7.248 km/s
True Right ascension
15h 09m 12s
True Declination
0° 00' 00"
Sunlit
Object was in daylight at epoch
Visualization orbit readout
Latitude
Unknown
Longitude
Unknown
Altitude
Unknown
Speed
Unknown
Apparent Right ascension
Unknown
Apparent Declination
Unknown
Sunlit
N/A
Visualization observer readout
Local Sidereal Time
13:48:27
Azimuth
Unknown
Elevation
Unknown
Doppler factor
Unknown
Orbital elements
Apogee altitude
1,211.815 km
Perigee altitude
1,169.854 km
Semi-major axis
7,568.972 km
Eccentricity
0.00277
Inclination
82.5343°
RAAN
227.3025°
Arg. of periapsis
112.9962°
True anomaly
247.11603°
Mean anomaly
247.4089°
Eccentric anomaly
247.26242°
Mean motion
3.296 °/min
Orbital period
109.22 mins
BSTAR
0.0006887
Loading maneuver chart data...
Computing Atmospheric mass density...
Loading historical data...
Loading historical data...
Loading historical data...
Loading historical data...
Loading historical data...
Loading historical data...
Loading historical data...

Documentation

Showing up to 5 results
|